#timestamp,LO_Frequency,Hit,StdDev 
1642712415.3,286046998.1,N
1642712435.1,286046998.2,N
1642712436.0,286046998.2,N
1642712455.8,286047001.2,N
1642712475.7,286047000.4,N
1642712495.5,286047001.9,N
1642712515.3,286047003.2,N
1642712535.2,286047003.9,N
1642712555.0,286047004.2,N
1642712555.9,286047004.2,N
1642712575.8,286046999.7,N
1642712595.6,286047000.2,N
1642712615.4,286047002.4,N
1642712635.3,286047002.8,N
1642712655.1,286047003.2,N
1642712675.9,286047001.5,N
1642712695.7,286047002.2,N
1642712715.5,286047000.1,N
1642712735.4,286046999.9,N
1642712755.2,286047000.0,N
1642712775.0,286047001.8,N
1642712775.9,286047001.8,N
1642712795.8,286047001.9,N
1642712815.6,286047001.6,N
1642712835.5,286047001.9,N
1642712855.3,286047003.9,N
1642712875.1,286047004.4,N
1642712895.9,286047002.5,N
1642712915.7,286047001.5,N
1642712935.5,286047002.6,N
1642712955.4,286047001.3,N
1642712975.2,286047001.7,N
1642712995.1,286047002.2,N
1642712996.0,286047002.2,N
1642713015.8,286047000.3,N
1642713035.6,286047002.8,N
1642713055.5,286047002.7,N
1642713075.3,286047003.7,N
1642713095.2,286047001.3,N
1642713115.9,286047001.6,N
1642713135.7,286047001.5,N
1642713155.6,286047000.1,N
1642713175.4,286047001.4,N
1642713195.2,286047004.4,Y
1642713215.1,286047000.1,P
1642713216.0,286047000.1,N
1642713235.8,286047002.6,P
1642713255.7,286047000.1,N
1642713275.5,286047000.5,N
1642713295.3,286046998.5,N
1642713315.2,286046998.9,N
1642713335.0,286046998.1,N
1642713335.9,286046998.1,N
1642713355.8,286047000.5,N
1642713375.6,286046998.5,N
1642713395.4,286046998.6,N
1642713415.3,286047000.7,N
1642713435.1,286046998.4,N
1642713455.8,286046998.2,N
1642713475.7,286046998.2,N
1642713495.5,286046998.2,N
1642713515.4,286046999.4,N
1642713535.2,286046996.5,N
1642713555.0,286046999.5,N
1642713555.9,286046999.5,N
1642713575.8,286046998.6,N
1642713595.6,286047002.7,N
1642713615.5,286047002.2,N
1642713635.3,286047002.5,N
1642713655.1,286047000.2,N
1642713675.9,286047000.7,N
1642713695.7,286047000.9,N
1642713715.5,286046999.8,N
1642713735.4,286047000.3,N
1642713755.2,286047000.6,N
1642713775.1,286047000.6,N
1642713776.0,286047000.6,N
1642713795.8,286047001.2,N
1642713815.6,286046998.8,N
1642713835.5,286046998.8,N
1642713855.3,286046999.1,N
1642713875.1,286046996.5,N
1642713895.9,286046999.4,N
1642713915.7,286046999.1,N
1642713935.6,286047001.2,N
1642713955.4,286047002.8,N
1642713975.2,286047000.0,N
1642713995.1,286047002.4,N
1642713996.0,286047002.4,N
1642714015.8,286047000.2,N
1642714035.6,286047000.6,N
1642714055.5,286047000.5,N
1642714075.3,286047000.1,N
1642714095.2,286047001.1,N
1642714115.9,286046998.5,N
1642714135.7,286047002.4,N
1642714155.6,286047003.9,N
1642714175.4,286047001.3,N
1642714195.2,286047002.6,N
1642714215.1,286047000.9,N
1642714216.0,286047000.9,N
1642714235.8,286047000.0,N
1642714255.7,286046998.5,N
1642714275.5,286047000.3,N
1642714295.3,286047001.0,N
1642714315.2,286046998.1,N
1642714335.0,286046998.5,N
1642714335.9,286046998.5,N
1642714355.7,286047001.2,N
1642714375.6,286047000.5,N
1642714395.4,286046998.2,N
1642714415.3,286047001.2,N
1642714435.1,286047000.7,N
1642714436.0,286047000.7,N
1642714455.8,286047000.7,N
1642714475.7,286047001.0,N
1642714495.5,286046998.6,N
1642714515.3,286047000.7,N
1642714535.2,286046998.6,N
1642714555.0,286047001.1,N
1642714555.9,286047001.1,N
1642714575.8,286046998.7,N
1642714595.6,286047000.0,N
1642714615.4,286047011.9,Y
1642714635.3,286047014.5,P
1642714655.1,286047016.7,N
1642714675.9,286047011.5,N
1642714695.7,286047010.7,N
1642714715.5,286047009.0,N
1642714735.4,286047008.8,N
1642714755.2,286047007.2,N
1642714775.1,286047004.3,N
1642714776.0,286047004.3,N
1642714795.8,286047002.3,N
1642714815.6,286047007.6,N
1642714835.5,286047014.6,Y
1642714855.3,286047009.2,P
1642714875.1,286047007.6,P
1642714895.9,286047004.1,P
1642714915.7,286047000.6,N
1642714935.6,286046998.6,N
1642714955.4,286046998.7,N
1642714975.2,286046997.6,N
1642714995.1,286046993.3,N
1642714996.0,286046993.3,N
1642715015.8,286046993.8,N
1642715035.7,286046993.5,N
1642715055.5,286046993.5,N
1642715075.3,286046994.6,N
1642715095.2,286046991.9,N
1642715115.0,286046991.9,N
1642715115.9,286046991.9,N
1642715135.8,286046991.9,N
1642715155.6,286046990.1,N
1642715175.5,286046990.1,N
1642715195.3,286046992.4,N
1642715215.1,286046994.5,N
1642715235.9,286046994.6,N
1642715255.7,286046992.2,N
1642715275.5,286046992.1,N
1642715295.4,286046990.1,N
1642715315.2,286046990.4,N
1642715335.1,286046990.2,N
1642715336.0,286046990.2,N
1642715355.8,286046991.7,N
1642715375.6,286046994.3,N
1642715395.5,286046991.8,N
1642715415.3,286046994.2,N
1642715435.2,286046993.3,N
1642715455.9,286046994.2,N
1642715475.7,286046994.4,N
1642715495.6,286046993.3,Y
1642715515.4,286046998.1,P
1642715535.3,286046998.7,N
1642715555.1,286047002.7,N
1642715556.0,286047002.7,N
1642715575.8,286047000.2,N
1642715595.7,286047002.5,N
1642715615.5,286046999.8,N
1642715635.3,286047000.6,N
1642715655.2,286047000.6,N
1642715675.0,286047000.2,N
1642715675.9,286047000.2,N
1642715695.8,286046999.7,N
1642715715.6,286047002.6,N
1642715735.4,286047000.5,N
1642715755.3,286046998.4,N
1642715775.1,286046998.9,N
1642715795.8,286047001.2,N
1642715815.7,286047000.8,N
1642715835.5,286047000.7,N
1642715855.4,286046998.6,N
1642715875.2,286046998.3,N
1642715895.0,286047001.1,N
1642715895.9,286047001.1,N
1642715915.8,286047002.8,N
1642715935.6,286046999.7,N
1642715955.5,286047002.7,N
1642715975.3,286047000.5,N
1642715995.1,286047002.1,N
